RH
11 11 11 12 14 18 23 25 30 46 60 57 58 74 87 91 82 66 59 38 11 9 12 9 11 11 11 12 12 14 15 16 17 17 19 21 22 24 25 25 25 25 24 23 23 21 21 20 19 19 18 16 15 14 12 10 9 8 8 8 8 8 8 8 8 8 8 8 13 28 51 76 90 90
9 8 9 10 9 10 12 12 14 21 30 30 32 48 73 90 78 58 62 51 18 10 18 18 20 24 26 28 27 27 28 30 32 31 30 31 32 32 32 32 31 30 30 28 27 27 25 24 23 22 22 21 21 21 21 19 17 14 12 10 9 9 8 8 8 8 8 8 8 8 15 31 49 63
19 17 15 14 12 12 10 10 12 10 12 15 12 21 55 81 68 46 48 44 26 24 31 34 38 40 42 44 43 42 39 36 37 37 35 34 33 31 30 30 29 27 26 26 25 25 24 24 23 22 21 21 20 21 22 22 23 22 22 20 19 17 14 12 10 9 8 8 9 8 8 8 11 18
38 37 35 34 31 30 28 27 29 28 27 26 19 20 42 58 49 36 36 36 36 40 44 48 50 45 43 45 44 43 38 34 35 34 33 32 29 27 26 27 26 25 24 24 23 23 22 22 21 21 21 20 19 18 18 18 19 19 20 22 23 24 24 23 19 15 12 10 8 8 9 9 8 7
44 44 44 45 45 45 46 46 47 49 49 47 42 37 39 43 42 41 44 46 47 48 48 52 53 45 40 38 38 39 35 32 33 33 33 31 28 27 27 27 27 27 27 26 26 25 23 22 21 20 20 20 19 18 17 16 16 15 15 15 17 18 20 22 24 24 22 18 14 11 8 8 9 9
50 50 48 48 48 48 48 49 52 55 52 49 51 51 49 49 48 47 50 51 50 51 49 49 48 43 37 34 38 43 42 37 34 33 33 31 29 28 29 29 29 28 28 27 27 25 24 23 22 20 20 19 19 19 19 17 16 15 14 13 13 13 14 14 15 18 21 23 23 20 16 12 9 8
58 58 58 58 57 54 52 51 52 55 53 50 54 56 55 56 58 56 52 48 47 47 45 43 42 43 44 42 40 41 44 42 39 36 33 30 30 30 30 30 30 30 29 27 26 25 24 23 22 21 20 19 18 18 18 18 17 16 15 13 12 12 12 12 11 11 12 14 17 21 22 20 16 12
63 63 63 66 66 65 64 63 61 62 59 53 55 60 58 58 64 65 60 55 49 45 43 40 39 46 52 50 46 47 46 42 39 35 32 30 30 31 30 30 29 29 28 26 24 23 22 21 20 19 18 18 17 17 16 15 16 16 16 15 13 12 11 10 10 10 10 9 9 11 14 18 21 21
70 70 70 70 71 70 70 70 71 75 71 62 62 65 58 56 65 69 67 64 59 54 50 47 49 58 60 54 52 51 44 39 39 36 33 34 35 34 31 28 26 25 24 23 21 20 20 19 18 16 16 15 14 14 14 13 13 13 14 14 14 14 12 11 9 9 8 9 8 8 8 9 11 15
75 76 75 75 76 75 74 73 74 76 75 71 74 72 63 64 74 79 76 73 70 67 63 61 63 64 60 54 52 45 37 38 40 38 37 37 36 34 28 24 22 20 19 18 17 16 16 16 15 15 14 13 13 13 12 12 12 11 11 12 13 13 13 13 12 10 9 8 7 8 8 7 7 7
76 75 75 76 77 76 76 76 73 73 73 74 78 79 74 75 79 80 77 73 76 80 79 74 65 55 47 45 48 46 41 41 41 38 37 33 29 25 21 19 18 17 17 16 15 15 15 14 14 14 14 14 13 13 12 12 12 11 11 11 10 11 11 12 12 12 11 10 9 7 7 6 7 7
76 77 80 82 81 78 78 75 70 69 71 74 80 82 79 78 77 74 66 59 63 71 70 59 48 45 46 46 47 46 43 40 38 35 32 28 23 20 18 18 17 17 17 16 15 15 14 14 15 14 14 14 14 13 13 13 12 12 12 11 11 11 10 10 10 10 10 10 10 9 9 8 7 6
82 84 86 87 86 83 82 76 66 63 63 63 68 73 72 68 63 60 53 45 42 42 39 34 32 38 46 47 45 40 32 30 31 27 25 24 21 19 18 18 17 17 16 15 15 15 14 15 14 14 14 14 14 14 13 13 13 12 12 12 12 11 11 10 10 10 10 10 10 9 9 9 8 7
85 87 85 83 84 86 85 78 68 64 60 52 50 54 58 58 56 55 49 39 31 27 26 27 28 31 35 39 39 33 26 26 26 23 21 21 19 18 18 17 17 16 16 15 15 14 14 15 14 14 14 14 14 14 13 13 13 12 12 12 11 12 12 11 11 10 10 10 10 10 9 9 9 8
81 83 81 78 82 87 86 79 71 66 60 53 50 51 53 54 53 48 39 30 26 26 26 26 26 27 28 28 28 25 24 25 24 21 20 19 18 18 17 17 17 17 17 17 16 15 15 15 14 14 14 15 15 14 13 13 12 12 12 11 11 12 11 11 11 11 11 10 10 10 10 10 9 9
76 75 75 77 84 89 85 76 68 64 61 57 53 48 41 37 34 30 28 27 27 28 27 26 26 26 24 22 22 22 23 24 24 22 21 21 20 19 18 18 17 17 18 18 16 15 14 15 14 14 14 15 15 15 14 14 13 12 12 11 11 11 11 11 11 11 10 10 10 10 10 10 10 10
78 74 75 79 83 81 74 66 63 62 58 52 45 38 32 30 30 31 31 31 30 29 28 27 25 23 22 22 23 23 24 24 23 24 24 24 23 22 21 20 19 19 19 18 17 15 14 13 13 12 13 13 13 13 12 12 11 11 10 10 10 10 10 11 10 11 11 10 10 10 10 10 10 10
78 76 77 77 75 70 63 60 60 57 49 42 38 36 36 36 36 36 34 32 32 32 31 28 25 25 25 25 25 25 26 25 25 25 25 25 24 24 23 22 22 21 19 17 15 13 11 11 9 9 9 9 9 9 9 9 9 8 8 7 7 8 9 9 9 9 9 9 10 10 10 11 10 10
82 80 79 75 69 63 56 50 48 45 40 39 39 39 39 37 35 33 32 32 33 33 32 31 30 29 28 28 28 28 27 27 27 26 26 25 25 25 25 24 24 22 19 16 13 10 9 8 7 7 7 7 7 6 6 6 6 6 6 6 6 6 6 7 7 7 6 6 7 8 9 9 9 9
85 77 72 69 61 50 45 43 42 41 42 41 40 39 38 36 34 33 32 33 33 32 32 32 32 31 31 31 30 29 28 28 28 28 28 28 28 28 28 28 26 23 18 13 9 8 7 7 7 6 6 6 6 5 5 6 5 6 6 6 7 7 7 7 7 7 7 7 7 7 7 7 7 8
79 68 57 55 54 50 50 50 50 47 44 41 40 39 36 34 34 35 36 36 35 34 33 33 33 32 32 31 30 29 29 29 29 29 30 31 31 30 29 26 24 20 15 11 9 7 6 6 6 6 5 5 5 5 6 7 8 9 10 10 10 10 9 9 9 8 8 8 8 8 7 7 7 6
66 63 54 49 51 53 52 49 48 45 42 41 42 41 39 37 37 37 37 36 35 35 35 34 34 33 32 32 31 31 31 31 31 31 31 31 29 26 22 18 16 15 12 10 8 7 6 6 6 7 7 7 8 9 10 10 10 10 9 9 9 9 8 8 8 8 8 8 8 8 8 8 8 7
47 46 45 45 48 50 48 46 47 47 46 46 45 46 47 46 43 40 38 37 36 36 36 36 35 35 33 33 33 33 34 33 33 32 31 29 24 19 16 14 12 11 10 9 9 8 7 7 9 11 11 10 10 11 10 9 9 8 8 7 7 7 7 6 5 5 6 6 6 6 6 6 6 7
41 39 39 41 44 47 48 51 54 53 51 49 48 50 53 52 50 48 44 42 40 39 38 38 37 36 36 36 36 37 37 35 34 31 28 24 20 16 14 13 11 9 9 8 9 10 10 11 12 13 12 10 9 8 8 7 8 9 9 9 8 9 11 12 11 11 11 10 9 8 8 7 6 6
47 50 53 51 50 51 52 53 54 53 51 50 49 49 51 53 55 54 51 48 45 43 41 40 38 37 37 36 36 35 34 31 29 26 22 19 17 15 13 11 10 9 10 11 12 13 13 13 11 10 9 9 8 8 8 8 10 15 18 19 20 20 23 26 28 29 28 26 25 24 23 22 20 17
53 56 59 55 52 52 52 51 52 52 51 50 48 49 53 56 57 56 54 50 47 44 42 40 38 37 35 34 33 31 29 26 23 21 19 17 15 14 12 11 11 12 14 15 14 13 12 11 10 10 10 11 11 12 12 14 19 26 32 36 38 39 41 45 49 51 51 50 49 48 46 45 44 41
45 45 46 46 45 46 47 49 50 50 49 50 51 53 55 55 54 51 48 45 42 40 38 36 34 33 32 31 29 27 24 23 22 21 21 19 17 16 15 16 17 17 17 14 12 11 11 11 12 14 17 19 19 21 25 29 34 40 46 53 57 60 64 66 67 68 69 67 65 65 64 64 65 63
33 35 38 40 42 43 44 46 48 49 51 54 55 56 53 49 45 42 39 37 35 33 30 29 28 27 27 26 24 23 22 22 23 23 22 20 18 16 18 19 18 16 14 13 13 14 14 16 20 26 31 35 38 41 45 47 51 58 64 69 74 77 78 76 74 73 72 71 70 71 73 75 76 75
41 44 48 51 54 54 52 52 53 55 57 59 58 56 51 44 38 35 33 31 29 26 25 24 23 23 23 22 22 23 24 25 26 24 21 18 17 17 18 18 16 14 14 17 20 24 28 31 36 42 48 53 57 60 62 64 69 76 79 77 76 77 77 74 72 71 71 71 73 76 79 80 78 75
57 60 63 64 65 64 62 61 62 62 62 60 57 50 43 37 33 31 28 26 25 23 22 21 21 21 21 22 24 26 27 28 27 24 21 18 17 17 16 15 16 19 22 26 31 36 41 46 50 55 60 65 70 74 79 81 84 87 86 81 75 73 74 74 72 71 72 72 75 78 81 80 76 73
75 75 75 73 71 69 67 64 62 59 56 51 45 39 34 33 31 27 24 22 20 20 21 21 23 24 24 27 30 30 30 29 27 22 19 18 17 15 13 14 17 21 27 35 41 46 51 56 61 66 70 73 76 81 86 88 87 86 85 83 79 76 76 77 76 76 77 76 77 79 80 80 79 76
85 84 81 77 72 67 64 61 58 54 48 42 38 38 39 38 34 28 23 20 18 20 23 26 29 31 33 34 33 32 31 29 24 20 17 16 16 16 17 20 24 27 33 42 50 56 61 65 69 74 76 76 78 80 82 84 84 84 85 85 84 83 82 82 83 83 82 82 83 84 83 82 80 77
89 87 81 73 66 63 62 63 60 52 44 38 39 46 49 45 37 29 22 18 18 21 26 31 34 35 36 34 32 31 28 24 20 17 17 18 21 24 28 33 37 41 45 51 57 63 67 70 73 77 78 78 79 79 80 81 82 84 86 86 87 87 87 87 85 84 84 86 86 85 84 81 77 75
89 82 72 64 64 65 64 62 56 48 41 39 42 48 48 41 33 29 26 26 29 33 37 40 39 37 36 34 32 27 22 18 18 20 24 27 31 34 39 43 47 50 53 57 63 68 71 73 74 76 77 77 78 82 86 88 87 88 91 93 92 91 89 87 85 83 85 88 87 84 82 78 75 77
82 77 66 57 57 59 58 56 54 50 49 51 51 49 42 34 31 34 38 42 48 50 48 45 40 38 36 32 26 21 18 19 22 27 31 35 38 42 46 49 53 57 61 66 71 75 77 77 77 77 78 79 82 88 95 97 95 95 97 98 97 96 93 90 91 91 92 94 92 88 81 75 75 82
72 70 63 57 55 56 56 56 57 59 62 63 56 46 38 34 35 40 45 49 51 49 47 45 44 40 33 25 19 18 19 23 27 32 37 41 43 47 52 56 60 64 68 73 79 81 82 83 83 83 84 85 87 93 98 100 99 99 99 99 97 94 93 94 97 98 98 99 97 91 83 78 81 89
69 62 62 66 69 68 64 62 65 69 69 62 51 43 42 43 43 46 50 52 49 46 46 46 43 33 23 18 21 24 27 30 34 38 41 44 47 52 58 63 68 72 75 79 83 85 87 89 91 92 93 93 96 98 99 99 100 99 100 98 94 92 95 97 99 100 100 100 97 89 83 82 85 92
76 70 74 83 85 79 72 70 74 74 66 55 48 47 49 50 50 51 53 52 52 51 49 41 31 21 18 21 27 31 33 35 38 41 43 47 51 57 65 72 77 79 80 82 86 88 90 93 96 98 98 98 100 99 96 96 99 100 100 99 95 94 98 100 99 99 99 97 92 86 83 84 86 91
87 87 90 95 95 87 79 78 78 72 62 53 50 50 51 53 55 54 53 55 58 54 42 28 20 18 20 23 27 30 32 35 38 41 44 49 57 66 75 82 85 85 84 85 88 91 94 96 98 99 99 99 101 99 96 95 97 99 100 100 98 97 99 99 98 96 93 89 86 85 87 90 90 93
95 96 95 97 99 96 91 85 78 69 61 56 55 54 56 59 60 57 57 60 57 42 26 19 19 22 25 26 26 27 30 33 38 43 48 56 66 77 83 86 87 87 85 85 87 93 98 99 99 99 100 100 99 99 99 99 99 99 99 100 100 100 99 97 94 92 91 90 89 90 94 97 97 97
99 99 98 101 100 95 87 78 70 65 62 61 63 66 67 66 63 61 62 58 44 26 18 20 23 25 27 27 26 27 31 35 41 46 53 63 73 81 85 87 89 90 88 87 91 96 99 100 100 99 100 99 99 100 100 99 97 97 98 99 99 99 98 96 95 94 95 96 97 97 99 100 99 99
99 99 100 99 92 82 72 64 59 60 63 65 69 75 76 71 66 64 60 47 28 18 20 22 23 24 25 25 25 28 33 37 43 49 56 66 75 81 84 87 91 93 93 93 97 99 100 99 99 99 100 100 100 98 97 95 95 97 100 99 97 96 97 97 98 99 99 99 99 99 100 100 99 99
95 98 96 90 82 72 60 50 43 46 56 68 77 80 76 70 67 62 49 31 19 17 20 20 20 21 22 22 25 29 33 37 44 50 58 68 77 81 84 88 92 94 96 97 99 100 99 99 100 100 98 96 93 91 91 94 97 98 98 97 95 95 96 99 100 100 99 99 100 100 99 100 100 100
88 89 85 82 75 65 55 47 44 52 67 80 83 80 75 71 66 52 33 20 17 18 18 18 19 20 20 21 24 29 33 39 45 52 59 69 78 82 85 89 93 96 98 99 99 100 100 99 99 95 90 86 86 88 91 94 96 95 94 95 95 95 97 99 100 99 99 99 100 100 99 99 100 100
89 84 80 79 74 65 57 51 52 66 83 87 81 76 76 71 57 37 22 17 18 18 17 18 19 18 18 20 24 30 35 41 47 53 58 65 76 84 86 87 92 97 99 99 99 99 100 100 97 91 84 83 86 91 93 94 94 93 92 93 96 97 98 99 99 99 100 100 99 99 99 99 99 100
Wind_Speed
5 5 5 6 6 6 6 6 6 6 8 9 8 7 5 3 1 3 2 2 2 3 4 4 4 4 5 5 4 4 4 4 4 4 4 4 5 5 6 6 7 7 8 9 10 10 11 11 12 12 12 12 12 12 12 12 13 13 14 14 14 13 13 14 14 15 15 14 14 14 16 18 21 22
7 6 6 6 6 6 7 7 7 6 7 8 7 7 11 11 7 4 1 1 1 3 4 4 4 4 5 5 4 4 4 4 3 3 4 4 5 5 6 6 7 8 9 9 10 11 12 12 13 13 14 14 14 14 14 14 15 15 15 16 16 16 16 15 15 15 15 15 15 14 14 14 15 17
8 8 7 7 7 7 7 7 7 6 6 7 6 7 13 15 10 5 1 3 2 1 2 3 3 3 4 3 3 3 2 3 2 2 3 3 3 5 6 6 7 8 9 9 10 11 11 12 13 14 14 15 15 16 16 16 16 17 17 18 18 18 18 18 18 17 17 17 16 16 15 14 14 15
7 7 7 7 7 7 7 7 7 7 6 6 6 9 13 14 10 4 1 3 4 2 1 1 1 1 2 2 3 2 1 1 1 1 2 3 4 5 6 6 8 9 10 10 11 11 12 12 13 13 14 15 15 16 16 17 17 18 18 19 19 20 20 20 20 20 19 19 19 18 18 17 16 16
4 4 4 5 5 5 6 6 6 6 5 6 6 7 9 9 7 5 3 3 4 3 3 3 3 3 2 2 2 2 3 3 2 3 4 4 4 5 7 8 10 12 12 13 12 13 13 14 14 14 15 15 16 16 17 17 18 18 19 19 20 20 21 21 22 22 21 21 21 21 21 20 20 19
1 0 1 1 2 3 4 4 4 3 4 4 4 4 5 5 5 5 4 5 5 5 5 4 4 5 5 4 3 4 6 7 7 7 8 8 7 7 9 11 13 15 16 17 17 17 17 17 16 16 16 16 16 17 18 18 18 19 19 20 20 21 21 22 22 23 23 23 22 22 22 22 22 22
5 5 5 4 4 4 4 4 4 4 5 4 2 3 3 3 4 5 6 6 6 6 7 6 6 6 7 8 7 7 8 9 10 11 11 11 11 11 12 14 16 17 19 20 21 22 22 21 21 21 21 20 20 19 19 19 19 19 20 20 21 21 22 22 23 23 23 24 24 24 24 23 24 24
7 7 7 8 8 8 7 7 7 7 8 7 6 6 6 6 6 6 7 8 7 7 8 7 6 7 10 11 10 10 10 10 12 13 12 13 13 15 17 18 19 21 21 22 23 24 24 24 25 25 25 25 25 24 23 22 21 20 20 21 21 22 22 22 23 23 24 24 24 25 25 25 25 25
11 11 11 11 11 11 11 10 9 9 10 10 8 9 9 7 6 7 8 10 11 10 10 10 9 10 12 13 12 12 12 13 14 15 15 15 17 19 22 24 24 25 25 25 24 25 25 26 26 26 26 26 26 26 26 25 24 23 23 23 22 22 22 23 23 23 24 24 25 25 26 26 26 27
16 16 16 15 14 14 13 12 11 11 12 11 10 11 11 9 7 8 9 11 13 13 13 12 11 11 11 11 13 15 14 14 17 17 17 18 21 23 26 28 29 30 30 29 28 26 26 26 26 27 26 26 26 26 26 26 26 26 26 26 25 24 24 24 24 24 24 25 25 26 26 27 27 28
20 19 19 18 17 16 14 13 12 12 12 11 11 11 12 10 9 8 9 10 11 11 12 12 12 12 12 11 13 16 16 17 19 21 21 22 24 26 28 29 30 31 32 32 32 30 29 28 28 28 28 27 27 26 26 26 26 26 27 27 28 27 27 27 26 26 26 26 26 27 27 27 28 29
21 20 19 19 17 16 15 13 12 11 11 11 11 11 11 11 10 9 9 9 9 9 10 11 12 13 14 15 17 18 19 20 21 23 24 25 26 28 29 29 30 31 32 32 32 32 31 30 29 29 29 29 28 28 27 27 26 27 27 28 29 29 29 29 29 28 28 28 28 28 28 29 29 30
22 21 21 20 18 15 14 14 12 12 12 11 11 11 11 11 10 9 9 9 9 10 11 12 13 14 15 18 20 21 22 23 24 24 25 26 28 29 29 30 31 32 33 32 31 31 31 32 31 30 30 30 30 30 29 28 28 28 29 29 30 31 31 31 31 31 30 30 30 30 31 31 31 32
22 23 23 22 20 18 15 13 12 13 13 13 12 11 11 11 11 10 10 11 11 12 13 15 16 17 17 19 22 23 24 25 26 26 27 28 30 31 31 31 31 32 33 33 32 30 30 33 33 32 32 32 33 33 33 31 31 30 30 31 31 32 32 32 33 33 32 32 32 32 32 33 33 34
22 24 23 20 19 19 17 14 13 14 14 14 14 13 12 12 13 13 13 13 14 14 15 17 19 20 20 21 23 23 23 25 27 28 29 30 32 33 33 33 32 32 33 35 35 32 30 33 34 33 33 33 34 35 35 35 34 33 33 33 33 33 33 33 34 34 34 34 34 34 34 34 34 35
22 22 20 17 15 17 17 15 14 14 15 16 16 15 15 14 14 15 15 15 16 17 18 19 21 23 23 23 24 23 22 24 28 29 29 30 32 33 34 34 34 34 34 37 38 36 33 34 35 35 34 34 35 36 36 36 37 36 36 35 35 35 35 34 35 36 36 36 36 36 36 36 36 36
19 15 12 10 11 13 14 14 13 14 16 16 16 16 16 16 16 16 17 18 19 20 21 21 23 24 24 23 24 24 24 26 27 28 29 30 31 33 34 35 36 36 36 38 41 40 38 37 37 36 35 35 35 35 34 35 36 37 37 37 36 36 35 36 36 37 38 38 38 38 37 38 38 38
16 12 9 8 10 11 11 12 13 14 15 15 15 16 16 16 17 18 19 20 21 22 23 23 24 24 24 24 25 25 25 27 28 29 30 31 33 34 36 37 37 37 37 39 41 42 41 40 39 38 35 35 35 34 34 34 35 37 37 37 36 36 36 36 37 38 38 38 39 39 40 40 40 40
15 13 11 11 12 11 11 12 13 14 15 16 16 17 18 19 19 19 21 22 22 23 23 23 24 25 24 25 26 26 27 28 29 31 33 34 35 36 37 37 37 37 38 40 42 43 42 41 41 39 37 36 36 35 34 34 34 36 37 37 37 36 36 36 37 38 38 38 38 40 41 41 41 41
15 14 14 14 12 11 12 14 14 16 17 18 18 19 20 21 20 20 22 22 22 23 23 23 24 25 25 25 27 28 29 30 31 33 34 35 36 37 37 38 38 38 39 39 41 43 43 41 41 39 37 36 36 36 34 33 33 34 34 35 35 35 35 35 36 36 36 36 37 39 40 41 42 43
15 15 17 16 13 11 13 15 15 17 18 19 20 21 23 23 21 20 20 21 22 22 23 24 25 25 26 27 28 29 30 32 33 34 35 36 36 38 39 39 39 40 40 40 40 42 42 41 40 40 38 36 36 35 34 33 32 32 31 31 32 33 33 34 35 35 34 34 35 38 39 39 40 42
17 17 18 18 16 15 17 18 18 19 20 20 21 22 24 25 24 21 19 20 21 23 23 24 25 26 27 28 29 30 31 33 34 36 37 38 38 39 40 41 41 42 41 40 41 42 42 40 39 39 38 36 34 33 33 32 32 32 31 29 30 31 32 34 35 35 35 34 35 37 38 39 40 41
19 19 20 20 19 19 20 20 20 20 20 21 21 22 23 25 25 23 21 20 22 24 25 26 27 28 29 30 31 32 33 34 36 37 38 39 39 40 40 40 41 42 41 39 40 40 39 38 37 37 38 38 35 32 32 32 32 33 34 33 32 33 34 35 36 36 36 36 37 38 39 39 40 42
20 20 21 21 21 21 21 22 22 22 22 22 23 23 24 26 27 27 26 25 26 27 28 29 29 30 31 32 32 33 34 35 36 37 38 38 38 39 39 39 40 41 40 39 38 38 38 37 36 36 37 39 38 35 34 34 34 35 36 38 37 37 37 37 37 38 38 38 39 39 39 40 41 42
22 22 22 22 22 22 23 23 23 23 24 24 25 26 28 29 29 30 30 29 29 30 31 31 31 32 33 34 34 35 36 37 37 38 38 38 38 38 39 40 40 39 38 37 36 37 37 37 37 37 38 39 40 40 38 37 36 36 37 38 39 39 38 37 37 37 37 38 38 39 39 39 40 41
24 23 22 22 24 25 26 26 26 25 25 26 27 28 29 30 30 30 31 31 31 32 32 32 33 34 34 35 36 36 37 38 38 39 39 39 38 39 39 39 39 38 37 36 35 36 37 38 38 39 39 40 41 42 42 40 38 37 36 36 36 36 36 35 33 32 32 33 33 34 35 35 36 37
27 26 25 26 27 28 29 29 28 28 27 27 28 28 28 28 29 29 30 31 32 33 34 34 34 35 35 35 35 35 35 36 36 37 38 38 38 38 37 37 37 37 37 37 36 37 38 39 39 39 40 41 41 41 41 40 38 36 33 30 29 29 29 29 29 29 28 29 29 29 29 29 30 30
28 27 27 28 29 30 31 31 31 31 30 29 29 28 28 28 29 30 31 32 33 33 34 34 34 34 34 35 35 34 34 33 34 34 35 35 35 35 35 35 36 36 36 37 38 38 39 40 40 40 40 40 40 40 39 37 34 30 27 24 23 24 25 27 28 29 28 28 29 28 27 27 26 27
30 29 30 31 31 32 33 33 33 33 32 31 29 28 28 29 30 31 32 32 32 32 32 32 33 33 34 34 34 33 33 33 33 34 35 34 34 34 34 35 36 36 37 38 38 38 39 39 39 38 37 36 36 35 34 31 27 24 23 24 23 23 25 26 28 28 29 28 28 27 26 26 25 25
31 31 31 31 31 32 32 32 32 31 30 29 29 29 30 31 32 32 32 31 30 30 30 31 32 32 33 33 32 32 32 33 33 34 34 34 33 34 35 35 35 36 36 37 37 37 37 37 36 35 34 32 30 29 28 26 23 22 24 26 27 26 26 26 27 27 27 27 26 24 23 23 23 24
30 30 30 29 29 29 28 27 27 26 27 27 28 29 30 30 31 31 30 29 29 29 29 29 30 31 32 32 32 32 32 33 33 33 33 33 33 34 36 36 36 36 36 35 36 36 36 35 34 32 30 29 27 25 25 24 24 24 25 27 28 29 28 26 26 25 25 25 24 22 21 22 24 25
26 26 27 26 25 23 23 23 24 25 26 27 27 27 28 28 30 29 28 28 28 28 27 28 29 29 30 31 31 32 32 32 32 32 33 33 34 35 36 37 37 38 37 35 34 34 33 32 30 29 28 27 26 25 25 25 26 27 27 26 27 28 27 27 26 25 25 25 24 23 23 24 25 27
23 23 23 21 21 22 23 24 25 27 27 27 26 25 26 28 31 30 29 28 28 27 27 27 28 28 29 30 30 31 31 30 30 31 31 32 33 34 35 36 37 37 37 35 32 31 30 28 28 27 27 27 26 26 27 27 26 27 28 27 26 26 26 26 26 25 24 25 25 24 24 24 25 26
23 21 20 20 22 23 24 26 27 28 27 27 26 25 26 28 29 29 29 28 27 27 27 27 27 28 28 29 29 29 28 28 28 29 30 31 32 33 33 34 34 34 34 32 31 30 28 27 26 26 26 26 26 26 26 27 26 26 26 26 25 25 25 25 26 25 23 24 25 25 23 22 23 24
23 21 20 21 23 25 26 27 27 28 28 27 27 27 27 27 25 24 24 25 25 26 26 26 27 27 27 27 27 27 26 26 26 27 28 29 31 31 32 32 32 31 31 30 29 28 27 26 26 26 25 26 25 22 21 23 24 24 24 24 24 25 26 26 26 24 22 22 24 25 23 22 21 22
25 26 26 25 25 26 28 28 28 28 27 26 26 27 27 26 23 22 22 24 25 26 26 25 25 25 25 25 25 25 25 25 26 27 28 28 29 30 30 30 30 29 29 28 27 26 25 24 25 25 24 24 22 18 16 18 21 23 23 24 25 26 27 26 24 22 22 22 24 25 24 22 20 19
30 33 31 28 27 28 29 28 27 27 25 24 24 24 24 24 24 24 25 26 27 26 25 24 24 24 23 23 23 23 24 24 25 26 26 27 28 28 28 28 28 27 27 26 25 24 23 23 22 22 21 21 19 17 16 16 18 21 23 26 27 27 26 24 21 21 22 23 23 24 23 21 19 18
32 32 29 28 30 31 30 28 27 24 22 22 22 21 20 22 23 25 27 27 27 25 24 23 23 22 22 20 20 21 22 23 24 24 25 26 26 26 27 26 25 25 24 23 22 22 22 21 20 19 18 18 18 19 19 17 17 19 23 26 27 25 23 22 21 21 22 23 24 23 22 20 18 16
32 30 28 29 31 31 29 27 24 21 19 19 20 20 20 21 23 26 27 26 24 23 23 22 22 21 20 19 19 20 21 21 22 23 24 25 25 25 25 24 23 23 22 21 21 20 20 19 18 17 17 17 18 20 21 21 21 21 22 23 24 23 21 21 22 22 22 23 23 20 17 16 15 15
30 27 26 27 29 29 27 23 19 17 18 19 20 20 20 21 23 25 25 24 22 22 22 21 20 19 19 19 20 20 20 21 23 23 24 24 24 23 22 21 21 21 21 20 19 17 16 17 17 16 16 17 19 20 22 24 25 23 20 19 20 21 21 21 22 22 22 21 18 14 11 11 11 12
31 27 23 21 20 21 19 16 16 16 18 20 20 20 21 22 23 23 22 21 21 21 20 19 18 18 18 18 19 20 21 21 22 23 24 24 22 21 20 20 21 21 20 19 17 15 14 15 15 15 16 18 20 21 23 24 23 20 17 16 18 19 20 21 21 20 17 15 13 11 8 7 8 8
26 23 19 15 13 13 13 14 16 17 17 19 19 19 20 22 22 20 20 20 20 19 19 18 16 16 17 17 18 19 20 21 21 22 23 23 21 20 20 21 22 21 20 18 15 13 13 13 14 15 16 18 20 22 22 21 18 16 15 16 17 18 18 17 16 14 13 11 10 8 6 5 5 6
19 16 14 12 12 13 14 16 17 17 17 18 18 18 20 21 19 18 19 19 18 17 17 16 15 15 16 17 18 19 20 20 21 22 23 22 21 20 21 22 22 20 18 16 14 12 12 13 14 14 16 18 20 19 17 15 14 14 15 16 15 14 13 12 11 10 10 8 7 5 4 4 4 5
17 14 12 12 12 13 15 16 15 14 16 17 17 18 19 19 18 17 18 17 17 16 15 14 14 14 15 16 17 19 20 21 22 23 23 22 21 21 22 22 21 18 16 14 13 12 12 13 14 15 17 18 16 14 12 12 14 15 14 13 11 10 10 9 9 8 7 5 5 5 5 5 5 5
15 13 13 14 14 14 15 15 14 14 15 16 17 18 17 16 16 17 16 15 14 14 13 13 13 14 15 16 17 19 20 21 22 23 23 22 22 22 22 22 19 16 14 13 13 12 12 13 14 16 17 15 12 11 12 13 13 12 10 8 9 10 10 10 8 6 5 5 5 6 7 6 5 5
Wind_Direction
123 127 131 136 142 150 155 158 166 168 166 169 164 152 144 137 299 315 352 20 26 57 78 84 89 90 89 91 91 86 79 71 61 54 48 32 23 16 6 1 356 350 347 342 339 336 332 328 325 322 318 315 312 309 305 302 298 296 295 293 292 289 287 286 287 289 291 293 295 295 289 278 268 263
101 106 115 129 138 142 145 149 157 161 165 175 180 172 166 173 207 261 299 233 341 59 87 92 95 101 97 98 101 99 93 87 76 57 47 34 19 10 0 353 350 347 343 338 335 331 327 324 322 319 318 316 314 313 311 309 306 303 300 299 297 295 292 289 288 289 290 291 291 291 291 286 278 270
90 94 99 109 117 124 130 131 136 140 150 162 158 156 170 183 210 250 249 213 209 116 100 93 93 106 106 102 107 98 82 85 82 44 26 16 3 1 356 346 341 340 338 334 331 327 324 320 317 314 312 310 309 309 308 307 307 305 304 303 302 300 299 296 293 290 288 287 286 285 284 282 279 275
92 93 95 100 103 110 118 119 123 125 128 140 137 144 168 187 211 237 198 171 176 164 140 126 129 153 137 151 167 171 177 60 57 356 349 351 356 356 346 340 340 337 335 334 333 331 329 326 322 318 313 309 306 304 302 301 301 301 300 300 300 299 299 299 297 295 292 289 287 285 283 281 277 275
103 106 109 115 118 122 123 123 129 134 138 147 146 150 166 184 205 213 195 188 196 205 199 202 236 249 227 205 200 235 279 295 295 296 310 316 327 334 330 332 338 339 334 330 329 328 327 326 324 321 319 315 312 308 305 302 299 298 297 296 295 295 295 295 295 295 294 292 290 287 284 281 278 275
324 302 204 171 166 165 162 155 154 171 187 174 160 167 175 187 209 216 214 215 222 234 232 226 241 260 269 264 271 299 304 306 306 303 311 313 307 313 323 327 330 334 333 329 326 324 323 322 320 318 316 314 312 310 307 304 302 299 297 294 293 292 291 291 291 290 291 290 289 288 286 283 280 277
305 300 290 278 262 245 227 209 199 218 231 215 201 221 214 222 250 257 250 241 236 239 244 243 242 259 282 284 286 296 302 310 312 309 314 319 315 316 321 322 324 326 328 327 324 322 321 320 318 316 314 312 310 308 305 302 300 298 296 293 291 290 289 289 288 287 287 286 285 285 284 283 281 279
301 299 296 290 282 273 266 254 241 240 244 236 232 242 237 232 246 262 271 274 272 264 265 270 270 279 289 290 295 302 303 308 308 304 309 315 315 318 322 322 322 321 321 321 320 318 317 317 316 315 313 311 309 307 305 301 297 294 292 289 287 286 286 285 285 285 284 283 283 282 281 280 279 278
295 296 295 293 287 280 274 269 260 253 252 246 242 248 245 234 237 255 267 274 277 279 282 284 288 296 299 300 302 305 311 316 310 307 314 316 316 320 321 321 320 318 316 316 314 313 312 312 311 309 307 306 305 304 303 300 298 295 290 286 284 282 281 281 280 280 280 280 280 280 279 278 277 275
292 295 294 291 287 280 273 269 266 261 260 257 250 249 251 250 256 260 261 267 269 270 273 278 285 293 298 303 305 305 312 315 310 310 313 313 315 318 318 318 318 316 314 312 311 310 309 308 306 305 303 302 300 299 298 297 296 294 291 288 285 281 279 277 276 276 276 276 276 277 277 277 276 275
286 290 290 286 282 276 267 262 263 261 258 256 249 246 251 258 266 266 264 272 273 264 262 272 284 290 292 295 299 303 307 307 307 310 310 309 312 314 314 315 315 315 314 313 312 311 310 308 307 305 304 302 300 298 296 294 292 291 289 288 286 284 281 278 276 274 273 272 272 272 273 273 274 274
281 283 281 274 268 263 258 256 257 257 256 255 251 251 256 263 269 270 269 276 279 269 265 274 284 290 293 293 293 297 302 305 306 309 310 310 310 310 311 312 312 311 310 309 309 310 310 308 306 305 303 301 299 297 294 292 291 289 287 285 285 284 282 281 279 276 274 272 271 270 269 269 269 270
283 284 281 275 266 255 248 245 247 252 257 259 256 256 261 264 265 265 264 266 270 272 276 283 288 291 294 295 295 297 302 306 306 308 309 307 306 307 308 308 308 307 306 306 307 308 307 305 304 303 301 300 298 296 294 292 290 288 286 285 283 282 282 281 280 279 277 275 272 270 269 268 268 267
285 284 282 281 275 260 244 238 244 251 255 256 256 255 258 261 261 262 265 267 270 275 281 286 289 291 291 290 291 295 302 305 305 306 305 304 304 305 306 306 307 307 307 307 307 308 308 305 303 303 302 301 299 297 295 293 290 288 285 284 282 280 280 279 278 277 276 275 273 271 270 268 267 266
287 284 282 281 273 258 246 237 241 249 255 257 257 254 255 257 260 263 266 270 274 279 284 287 289 290 289 289 290 295 301 300 299 301 304 304 306 307 307 308 309 309 310 309 308 309 309 305 304 304 303 302 300 299 298 297 294 291 289 286 283 282 281 280 280 278 275 274 272 271 269 268 267 266
291 286 281 274 260 250 244 238 239 247 255 257 256 255 255 257 261 265 268 274 279 283 285 287 289 290 292 293 295 296 295 292 292 298 302 304 305 306 307 308 309 310 311 308 307 308 308 306 304 303 303 301 299 297 297 296 295 294 291 289 286 285 284 283 281 280 278 276 274 272 270 268 267 265
287 280 271 255 240 240 241 240 240 244 249 252 254 256 258 260 265 269 273 279 283 285 288 289 289 291 295 296 295 294 292 292 294 297 299 301 303 305 306 307 309 310 310 308 307 308 308 306 303 302 301 298 295 294 293 293 292 292 290 289 287 286 285 283 281 280 280 279 278 276 273 270 268 266
275 268 254 235 230 234 236 236 236 239 245 251 255 259 263 267 271 275 280 283 285 287 291 292 292 294 296 296 293 293 295 297 299 300 302 303 304 305 305 307 308 309 309 308 307 307 307 305 303 302 301 298 296 295 294 293 292 290 290 289 288 286 284 282 281 279 279 279 278 277 276 273 271 269
261 258 248 237 233 231 231 235 239 243 249 254 259 265 270 274 278 282 284 286 287 289 292 293 293 295 296 295 295 297 299 300 301 302 303 303 303 303 304 306 307 308 307 307 307 307 307 305 303 303 302 300 298 297 296 295 292 290 290 289 288 287 285 283 281 280 279 278 277 277 276 275 274 272
252 251 246 244 241 234 235 242 246 251 254 257 261 265 270 275 280 283 285 287 289 291 293 293 293 295 295 295 296 299 300 301 301 302 302 302 303 304 305 306 307 306 306 307 306 305 305 304 303 303 303 301 298 298 297 295 292 290 289 289 288 288 286 285 283 281 280 279 278 276 275 275 274 273
249 245 248 253 250 242 244 248 251 256 262 267 271 275 278 281 283 286 288 290 292 293 293 294 295 295 296 297 298 300 301 302 302 302 302 303 304 306 307 307 306 306 306 307 306 304 304 305 304 303 302 300 299 298 297 295 293 291 289 289 289 288 287 285 284 283 282 280 278 277 276 275 275 274
248 245 250 254 249 244 249 253 256 261 267 271 277 282 286 287 287 289 291 293 294 294 295 297 298 299 299 300 301 302 301 301 301 301 302 304 306 306 307 306 306 306 307 307 306 305 305 305 304 302 301 299 299 299 299 297 296 294 292 290 288 287 285 284 283 282 281 280 277 276 276 276 275 275
246 246 249 251 249 247 252 256 259 264 269 273 278 283 289 292 293 293 295 295 295 297 299 301 301 302 302 303 303 302 301 301 301 301 302 303 304 304 304 304 305 305 305 305 305 304 303 302 302 301 300 299 299 300 299 298 298 298 297 294 292 289 287 285 284 283 282 280 278 277 276 276 275 275
245 247 248 249 250 252 255 258 261 265 270 276 283 289 294 297 298 298 299 299 299 299 301 302 302 303 303 302 301 300 298 297 297 298 300 301 301 301 302 302 303 303 303 303 303 302 301 301 301 301 302 302 302 302 300 299 299 299 298 296 294 293 291 288 287 286 284 282 280 279 278 276 275 275
247 248 249 250 253 255 258 261 264 269 275 281 288 294 298 299 299 299 299 300 300 300 301 302 303 303 302 301 300 299 298 298 300 300 300 300 301 301 302 303 303 303 303 303 303 302 302 303 303 303 303 303 303 302 301 300 300 299 297 295 295 293 292 290 288 287 285 284 283 282 281 280 278 276
252 250 250 253 258 261 264 267 270 274 279 285 291 296 298 298 297 297 297 298 299 300 302 303 303 302 301 301 301 300 301 302 303 302 301 302 303 304 305 305 304 304 304 303 303 302 302 302 302 303 303 302 302 302 301 301 300 299 297 296 295 294 293 292 290 289 288 288 288 287 286 285 284 282
256 259 261 263 265 266 268 272 275 278 283 289 293 296 296 295 296 296 297 298 300 301 302 301 300 300 299 298 298 298 299 300 300 300 301 303 304 305 305 304 303 303 303 303 302 302 301 302 303 303 304 303 302 302 302 302 301 300 299 297 296 295 295 295 295 295 295 293 292 291 289 289 289 288
259 263 267 269 270 271 272 273 276 280 285 289 292 294 294 295 296 296 297 298 299 299 299 298 297 297 296 296 296 296 297 297 297 298 299 299 300 301 301 300 300 301 302 302 302 303 303 304 305 305 304 303 303 302 302 301 301 301 300 297 295 296 297 297 298 298 297 296 294 292 290 289 288 288
259 262 265 268 271 273 275 276 278 281 284 287 289 292 294 295 296 295 296 296 296 295 295 295 295 295 295 295 295 296 296 297 298 298 299 299 300 300 299 299 300 301 302 302 303 304 304 304 304 303 302 301 302 302 302 301 301 303 302 300 299 300 299 298 298 298 297 296 294 291 289 288 288 288
258 261 264 267 270 274 277 279 281 282 283 287 290 293 295 295 295 295 296 296 295 294 294 293 293 292 293 293 294 295 297 299 300 300 300 300 301 300 299 299 299 300 301 302 303 303 303 302 301 301 301 301 302 302 301 300 300 302 304 304 304 304 302 300 298 298 297 296 294 292 290 289 289 290
256 260 264 267 269 273 277 280 282 284 287 291 294 295 296 296 297 299 299 298 296 294 293 292 291 292 293 294 296 298 300 301 301 300 300 301 301 300 300 299 299 300 302 302 303 303 303 302 301 300 300 300 300 299 298 297 298 300 302 303 304 304 304 301 299 299 298 296 295 293 290 288 289 290
254 257 259 263 267 271 276 280 284 288 292 295 298 298 299 299 300 302 301 297 295 293 291 290 290 291 294 296 299 301 302 301 301 301 301 301 301 301 302 302 303 304 304 304 304 303 301 300 298 298 299 299 298 298 296 296 298 300 300 301 301 302 302 300 300 301 299 297 294 291 289 288 289 289
251 252 253 259 268 274 279 283 287 291 296 299 300 301 303 304 305 305 302 297 294 292 291 291 292 293 296 298 300 301 301 301 301 301 301 302 302 303 304 304 304 304 304 305 305 302 299 297 296 296 297 297 298 299 298 298 299 299 300 301 302 301 300 300 301 302 300 297 294 291 289 289 290 290
245 247 255 266 271 273 278 283 287 293 297 299 299 300 304 306 305 303 300 297 295 295 294 295 296 297 298 300 300 300 300 300 300 301 302 303 303 303 303 303 303 304 305 305 305 304 301 299 297 297 298 298 299 301 301 300 299 299 301 303 304 303 303 303 304 304 302 298 295 293 292 292 291 291
249 248 261 272 271 272 278 282 287 293 297 298 299 302 304 303 299 295 294 295 296 298 298 299 299 299 300 301 301 300 300 301 302 303 304 305 305 305 305 305 306 306 306 306 306 305 303 301 300 300 300 299 300 302 301 300 301 302 303 305 305 305 306 307 307 306 303 300 298 297 297 297 295 294
255 259 268 272 268 270 275 278 284 291 295 297 300 303 304 304 301 298 297 297 298 299 300 300 300 301 302 301 301 301 303 304 306 308 308 308 307 307 308 308 308 308 307 307 307 305 304 304 303 303 304 304 306 307 305 303 306 309 309 307 307 307 308 308 307 305 302 300 300 300 301 301 300 299
261 265 266 263 261 264 270 275 282 288 291 295 298 299 301 303 305 306 306 305 303 302 300 300 300 301 302 301 303 305 308 310 311 312 311 310 310 311 311 311 309 307 306 306 306 304 304 305 305 306 310 313 313 313 309 306 309 313 311 309 308 310 310 309 306 302 299 300 301 302 302 301 301 301
260 259 255 253 255 260 265 273 279 282 285 290 292 293 295 298 303 307 309 308 305 302 301 301 302 302 302 303 306 309 311 313 314 314 313 314 314 314 313 311 309 307 307 306 305 303 303 305 306 307 309 312 313 313 312 311 315 317 313 309 309 311 311 307 303 300 300 302 303 303 302 299 298 301
246 245 245 244 249 257 266 273 274 274 278 285 288 290 293 296 301 306 308 306 304 301 301 302 302 302 303 306 310 312 315 317 319 319 319 319 318 317 315 313 311 309 308 306 303 300 300 302 302 301 303 308 312 314 315 317 320 320 314 308 309 312 311 307 304 304 304 303 303 302 299 296 298 300
228 228 234 238 245 256 265 267 265 267 275 281 285 288 291 294 301 306 306 304 301 300 300 301 302 306 310 313 315 319 323 326 327 326 325 324 322 319 317 316 315 313 311 308 305 300 299 300 301 301 305 311 315 316 316 316 317 317 313 309 310 311 311 309 308 308 308 306 306 303 297 293 295 295
213 210 219 233 246 256 259 258 260 267 274 277 279 284 289 295 303 306 303 300 300 300 299 301 305 309 313 316 321 326 330 332 331 330 328 326 324 322 323 325 325 323 319 316 313 309 307 309 311 313 315 316 316 315 313 312 314 316 314 311 311 312 312 312 311 311 312 313 312 309 305 299 290 283
213 214 221 236 255 262 263 264 267 270 272 274 276 281 289 297 304 304 299 298 299 297 297 300 306 311 317 322 327 331 333 334 334 333 332 330 329 330 333 334 332 329 326 325 324 322 321 321 321 321 320 316 313 312 312 314 318 320 318 315 315 315 314 313 313 314 316 319 318 314 309 302 293 283
228 229 233 243 258 265 268 271 270 268 268 270 274 281 291 299 302 299 294 295 295 293 294 300 308 316 323 328 331 333 336 337 338 337 336 336 337 339 339 337 334 330 330 332 334 334 332 330 328 326 322 317 315 315 318 323 326 323 320 320 320 318 318 320 320 318 320 324 327 322 309 299 298 304
239 240 245 253 261 268 272 273 269 264 263 267 275 285 294 299 297 292 291 293 293 292 297 306 315 323 328 331 334 337 339 341 341 340 340 342 344 344 342 338 335 334 336 337 340 341 339 336 333 330 325 322 322 325 330 332 329 325 324 326 329 333 340 343 339 334 336 343 343 330 318 316 323 332
240 245 257 266 271 275 275 273 268 263 264 271 280 289 295 294 289 287 288 288 288 292 301 311 320 326 331 334 337 339 341 343 343 343 344 348 349 346 342 339 340 343 345 344 345 347 345 340 335 331 329 328 332 337 339 338 334 331 334 347 357 360 358 355 353 354 359 356 341 327 323 330 345 352